This is the latest recevied weather packets stored in our database for station/object K9YK-13. If no packets are shown the sender has not sent any weather packets the latest 10 day(s).
| Time | Temp. | Humidity | Pressure | Rain* | Wind** | Luminosity | Snow |
|---|---|---|---|---|---|---|---|
| 1778110869 | 13.89° C | 48% | 0 hPa | 0 mm | - | - | - |
| 1778110569 | 14.44° C | 50% | 0 hPa | 0 mm | - | - | - |
| 1778110269 | 15° C | 48% | 0 hPa | 0 mm | - | - | - |
| 1778109969 | 15° C | 49% | 0 hPa | 0 mm | - | - | - |
| 1778109669 | 14.44° C | 49% | 0 hPa | 0 mm | - | - | - |
| 1778109369 | 15° C | 49% | 0 hPa | 0 mm | - | - | - |
| 1778109069 | 14.44° C | 52% | 0 hPa | 0 mm | - | - | - |
| 1778108769 | 15° C | 52% | 0 hPa | 0 mm | - | - | - |
| 1778108469 | 13.89° C | 52% | 0 hPa | 0 mm | - | - | - |
| 1778108169 | 13.89° C | 54% | 0 hPa | 0 mm | - | - | - |
| 1778107869 | 14.44° C | 54% | 0 hPa | 0 mm | - | - | - |
| 1778107569 | 15° C | 52% | 0 hPa | 0 mm | - | - | - |
| 1778107269 | 15° C | 50% | 0 hPa | 0 mm | - | - | - |
| 1778106969 | 14.44° C | 52% | 0 hPa | 0 mm | - | - | - |
| 1778106669 | 15° C | 52% | 0 hPa | 0 mm | - | - | - |
| 1778106369 | 15° C | 52% | 0 hPa | 0 mm | - | - | - |
| 1778106069 | 15° C | 49% | 0 hPa | 0 mm | - | - | - |
| 1778105769 | 15° C | 49% | 0 hPa | 0 mm | - | - | - |
| 1778105469 | 15.56° C | 50% | 0 hPa | 0 mm | - | - | - |
| 1778105169 | 15° C | 48% | 0 hPa | 0 mm | - | - | - |
| 1778104869 | 16.11° C | 48% | 0 hPa | 0 mm | - | - | - |
| 1778104569 | 16.11° C | 48% | 0 hPa | 0 mm | - | - | - |
| 1778104269 | 16.11° C | 47% | 0 hPa | 0 mm | - | - | - |
| 1778103969 | 15° C | 49% | 0 hPa | 0 mm | - | - | - |
| 1778103669 | 15.56° C | 48% | 0 hPa | 0 mm | - | - | - |
* Rain latest hour (hover to see other rain measurements)
** Current wind speed in m/s (hover to see current wind gust speed)